Weather History for Glasgow, United Kingdom

Change the Weather History Date:

Sunday, December 9, 2012

  Actual Average Record
Temperature  
Mean Temperature 40 °F -  
Max Temperature 48 °F 43 °F 55 °F (2013)
Min Temperature 32 °F 33 °F 23 °F (2010)
Degree Days  
Heating Degree Days 24    
Moisture  
Dew Point 35 °F    
Average Humidity 76    
Maximum Humidity 87    
Minimum Humidity 66    
Precipitation  
Precipitation 0.00 in - - ()
Sea Level Pressure  
Sea Level Pressure 30.00 in    
Wind  
Wind Speed 13 mph ()    
Max Wind Speed 25 mph    
Max Gust Speed 34 mph    
Visibility 6.1 miles    
Events Rain    
Averages and records for this station are not official NWS values.
T = Trace of Precipitation, MM = Missing Value Source: Averaged Metar Reports

Daily Weather History Graph

Daily Weather History Graph

Search for Another Location

Airport:

Trip Planner

Search our weather history database for the weather conditions in past years. The results will help you decide how hot, cold, wet, or windy it might be!

Date:

Astronomy

Dec. 09, 2012 Rise Set
Actual Time 8:36 AM GMT 3:44 PM GMT
Civil Twilight 7:49 AM GMT 4:30 PM GMT
Nautical Twilight 7:00 AM GMT 5:19 PM GMT
Astronomical Twilight 6:15 AM GMT 6:04 PM GMT
Moon 3:13 AM GMT (12/9) 1:16 PM GMT (12/9)
Length of Visible Light 8h 41m
Length of Day
7h 08m
Waning Crescent, 20% of the Moon is Illuminated
Dec 9
Waning Crescent
Dec 13
New
Dec 20
First Quarter
Dec 28
Full
Jan 5
Last Quarter

Hourly Weather History & Observations

Time (GMT) Temp. Windchill Dew Point Humidity Pressure Visibility Wind Dir Wind Speed Gust Speed Precip Events Conditions
12:20 AM 46.4 °F 40.7 °F 41.0 °F 81% 29.98 in 6.2 mi West 12.7 mph - N/A   Mostly Cloudy
12:50 AM 48.2 °F - 41.0 °F 76% 29.95 in 5.0 mi West 15.0 mph - N/A   Light Drizzle
1:20 AM 48.2 °F - 41.0 °F 76% 29.95 in 5.0 mi West 15.0 mph - N/A Rain Light Rain
1:50 AM 46.4 °F 39.0 °F 42.8 °F 87% 29.95 in 5.6 mi WNW 19.6 mph - N/A Rain Light Rain
2:20 AM 46.4 °F 40.1 °F 41.0 °F 81% 29.95 in 6.2 mi WNW 15.0 mph - N/A Rain Light Rain
2:50 AM 44.6 °F 38.8 °F 41.0 °F 87% 29.95 in 6.2 mi WNW 11.5 mph - N/A Rain Light Rain
3:20 AM 44.6 °F 39.2 °F 41.0 °F 87% 29.95 in 6.2 mi NW 10.4 mph - N/A   Overcast
3:50 AM 44.6 °F 36.6 °F 35.6 °F 71% 29.95 in 6.2 mi WNW 19.6 mph - N/A   Scattered Clouds
4:20 AM 42.8 °F 36.6 °F 35.6 °F 76% 29.95 in 6.2 mi WNW 11.5 mph - N/A   Scattered Clouds
4:50 AM 42.8 °F 35.8 °F 35.6 °F 76% 29.95 in 6.2 mi West 13.8 mph - N/A   Scattered Clouds
5:20 AM 42.8 °F 34.8 °F 33.8 °F 70% 29.92 in 6.2 mi West 17.3 mph - N/A   Scattered Clouds
5:50 AM 42.8 °F 35.1 °F 33.8 °F 70% 29.92 in 6.2 mi West 16.1 mph - N/A   Mostly Cloudy
6:20 AM 42.8 °F 35.1 °F 35.6 °F 76% 29.95 in 6.2 mi WNW 16.1 mph - N/A   Scattered Clouds
6:50 AM 42.8 °F 34.8 °F 33.8 °F 70% 29.92 in 6.2 mi WNW 17.3 mph - N/A   Partly Cloudy
7:20 AM 42.8 °F 34.3 °F 32.0 °F 66% 29.95 in 6.2 mi West 19.6 mph - N/A   Partly Cloudy
7:50 AM 42.8 °F 34.3 °F 33.8 °F 70% 29.92 in 6.2 mi WNW 19.6 mph - N/A   Partly Cloudy
8:20 AM 44.6 °F 36.1 °F 33.8 °F 66% 29.92 in 6.2 mi WNW 21.9 mph - N/A   Partly Cloudy
8:50 AM 42.8 °F 34.8 °F 33.8 °F 70% 29.92 in 6.2 mi WNW 17.3 mph - N/A   Partly Cloudy
9:20 AM 44.6 °F 36.9 °F 35.6 °F 71% 29.95 in 6.2 mi NW 18.4 mph - N/A   Partly Cloudy
9:50 AM 44.6 °F 35.9 °F 35.6 °F 71% 29.95 in 6.2 mi WNW 23.0 mph - N/A   Partly Cloudy
10:20 AM 44.6 °F 35.9 °F 37.4 °F 76% 29.92 in 6.2 mi WNW 23.0 mph - N/A   Partly Cloudy
10:50 AM 44.6 °F 35.5 °F 37.4 °F 76% 29.92 in 6.2 mi WNW 25.3 mph - N/A   Partly Cloudy
11:20 AM 44.6 °F 35.9 °F 35.6 °F 71% 29.92 in 6.2 mi WNW 23.0 mph 34.5 mph N/A   Partly Cloudy
11:50 AM 44.6 °F 37.8 °F 35.6 °F 71% 29.95 in 6.2 mi NW 15.0 mph - N/A   Partly Cloudy
12:20 PM 46.4 °F 40.4 °F 35.6 °F 66% 29.95 in 6.2 mi NW 13.8 mph - N/A   Partly Cloudy
12:50 PM 44.6 °F 38.1 °F 35.6 °F 71% 29.98 in 6.2 mi WNW 13.8 mph - N/A   Partly Cloudy
1:20 PM 44.6 °F 38.4 °F 35.6 °F 71% 29.98 in 6.2 mi WNW 12.7 mph - N/A   Partly Cloudy
1:50 PM 44.6 °F 38.4 °F 35.6 °F 71% 29.98 in 6.2 mi WNW 12.7 mph - N/A   Scattered Clouds
2:20 PM 44.6 °F 38.8 °F 35.6 °F 71% 29.98 in 6.2 mi WNW 11.5 mph - N/A   Partly Cloudy
2:50 PM 44.6 °F 38.4 °F 35.6 °F 71% 30.01 in 6.2 mi WNW 12.7 mph - N/A   Partly Cloudy
3:20 PM 42.8 °F 36.6 °F 35.6 °F 76% 30.01 in 6.2 mi WNW 11.5 mph - N/A   Partly Cloudy
3:50 PM 42.8 °F 36.6 °F 35.6 °F 76% 30.01 in 6.2 mi WNW 11.5 mph - N/A   Partly Cloudy
4:20 PM 41.0 °F 35.2 °F 35.6 °F 81% 30.04 in - WNW 9.2 mph - N/A   Clear
4:50 PM 41.0 °F 33.5 °F 35.6 °F 81% 30.04 in - WNW 13.8 mph - N/A   Clear
5:20 PM 41.0 °F 34.7 °F 35.6 °F 81% 30.04 in - WNW 10.4 mph - N/A   Clear
5:50 PM 41.0 °F 35.8 °F 33.8 °F 76% 30.06 in - West 8.1 mph - N/A   Clear
6:20 PM 41.0 °F 35.2 °F 33.8 °F 76% 30.06 in - West 9.2 mph - N/A   Clear
6:50 PM 39.2 °F 33.6 °F 33.8 °F 81% 30.06 in - West 8.1 mph - N/A   Clear
7:20 PM 37.4 °F 32.8 °F 32.0 °F 81% 30.09 in - South 5.8 mph - N/A   Clear
7:50 PM 37.4 °F 32.1 °F 32.0 °F 81% 30.09 in 6.2 mi SW 6.9 mph - N/A   Scattered Clouds
8:20 PM 39.2 °F 34.2 °F 33.8 °F 81% 30.09 in 6.2 mi West 6.9 mph - N/A   Partly Cloudy
8:50 PM 37.4 °F 32.8 °F 32.0 °F 81% 30.12 in - West 5.8 mph - N/A   Clear
9:20 PM 37.4 °F 34.9 °F 32.0 °F 81% 30.12 in 6.2 mi Variable 3.5 mph - N/A   Scattered Clouds
9:50 PM 35.6 °F 31.7 °F 30.2 °F 81% 30.15 in 6.2 mi NNW 4.6 mph - N/A   Partly Cloudy
10:20 PM 35.6 °F 29.9 °F 30.2 °F 81% 30.15 in - NW 6.9 mph - N/A   Clear
10:50 PM 37.4 °F 32.1 °F 32.0 °F 81% 30.15 in - NNW 6.9 mph - N/A   Clear
11:20 PM 33.8 °F 30.8 °F 30.2 °F 87% 30.18 in - Variable 3.5 mph - N/A   Clear
11:50 PM 32.0 °F 28.7 °F 28.4 °F 87% 30.18 in 6.2 mi West 3.5 mph - N/A   Partly Cloudy